| time (UTC) | temp F | wind direction | speed MPH | gust MPH | rain 1hr in | rain 24hr in | rain mn in | humidity % | barometer mb |
| 20260506233558 | 62 | 211 | 4.0 | 6.0 | 0.00 | 0.00 | 0.00 | 41 | 1013.8 |
| 20260506232544 | 62 | 214 | 2.0 | 4.0 | 0.00 | 0.00 | 0.00 | 41 | 1013.7 |
| 20260506231532 | 62 | 222 | 2.0 | 4.0 | 0.00 | 0.00 | 0.00 | 41 | 1013.7 |
| 20260506230618 | 61 | 225 | 1.0 | 2.0 | 0.00 | 0.00 | 0.00 | 41 | 1013.6 |
| 20260506225604 | 62 | 225 | 1.0 | 2.0 | 0.00 | 0.00 | 0.00 | 41 | 1013.7 |
| 20260506224552 | 62 | 225 | 1.0 | 2.0 | 0.00 | 0.00 | 0.00 | 41 | 1013.5 |
| 20260506223538 | 62 | 225 | 1.0 | 2.0 | 0.00 | 0.00 | 0.00 | 41 | 1013.5 |
| 20260506222525 | 62 | 225 | 0.0 | 2.0 | 0.00 | 0.00 | 0.00 | 40 | 1013.5 |
| 20260506221614 | 62 | 225 | 1.0 | 2.0 | 0.00 | 0.00 | 0.00 | 40 | 1013.4 |
| 20260506220558 | 62 | 225 | 1.0 | 2.0 | 0.00 | 0.00 | 0.00 | 40 | 1013.3 |
| 20260506215544 | 62 | 225 | 0.0 | 2.0 | 0.00 | 0.00 | 0.00 | 38 | 1013.3 |
| 20260506214534 | 62 | 0.0 | 1.0 | 0.00 | 0.00 | 0.00 | 36 | 1013.0 | |
| 20260506213619 | 63 | 225 | 0.0 | 2.0 | 0.00 | 0.00 | 0.00 | 35 | 1013.2 |
| 20260506212604 | 64 | 225 | 0.0 | 2.0 | 0.00 | 0.00 | 0.00 | 32 | 1013.1 |
| 20260506211552 | 64 | 0.0 | 1.0 | 0.00 | 0.00 | 0.00 | 31 | 1013.1 | |
| 20260506210537 | 65 | 225 | 1.0 | 2.0 | 0.00 | 0.00 | 0.00 | 31 | 1013.1 |
| 20260506205523 | 66 | 225 | 0.0 | 2.0 | 0.00 | 0.00 | 0.00 | 30 | 1012.9 |
| 20260506204612 | 66 | 225 | 1.0 | 2.0 | 0.00 | 0.00 | 0.00 | 30 | 1012.8 |
| 20260506203558 | 67 | 220 | 2.0 | 3.0 | 0.00 | 0.00 | 0.00 | 28 | 1012.8 |
| 20260506202544 | 68 | 225 | 1.0 | 3.0 | 0.00 | 0.00 | 0.00 | 26 | 1012.7 |
| 20260506201533 | 68 | 220 | 3.0 | 5.0 | 0.00 | 0.00 | 0.00 | 26 | 1012.8 |
| 20260506200619 | 67 | 210 | 3.0 | 5.0 | 0.00 | 0.00 | 0.00 | 28 | 1012.7 |
| 20260506195603 | 67 | 198 | 2.0 | 4.0 | 0.00 | 0.00 | 0.00 | 30 | 1012.6 |
| 20260506194552 | 66 | 203 | 1.0 | 2.0 | 0.00 | 0.00 | 0.00 | 29 | 1012.6 |
| 20260506193537 | 67 | 225 | 1.0 | 2.0 | 0.00 | 0.00 | 0.00 | 28 | 1012.6 |
| 20260506192522 | 67 | 180 | 0.0 | 2.0 | 0.00 | 0.00 | 0.00 | 27 | 1012.6 |
| 20260506191611 | 68 | 0.0 | 1.0 | 0.00 | 0.00 | 0.00 | 27 | 1012.6 | |
| 20260506190556 | 67 | 208 | 1.0 | 4.0 | 0.00 | 0.00 | 0.00 | 28 | 1012.6 |
| 20260506185543 | 67 | 225 | 0.0 | 2.0 | 0.00 | 0.00 | 0.00 | 28 | 1012.5 |
| 20260506184531 | 67 | 225 | 0.0 | 2.0 | 0.00 | 0.00 | 0.00 | 28 | 1012.4 |
| 20260506183616 | 68 | 225 | 0.0 | 2.0 | 0.00 | 0.00 | 0.00 | 28 | 1012.4 |
| 20260506182602 | 69 | 0.0 | 0.0 | 0.00 | 0.00 | 0.00 | 26 | 1012.3 | |
| 20260506181550 | 71 | 0.0 | 1.0 | 0.00 | 0.00 | 0.00 | 24 | 1012.1 | |
| 20260506180535 | 73 | 225 | 0.0 | 2.0 | 0.00 | 0.00 | 0.00 | 21 | 1012.1 |
| 20260506175521 | 74 | 202 | 1.0 | 2.0 | 0.00 | 0.00 | 0.00 | 21 | 1012.1 |
| 20260506174609 | 74 | 214 | 2.0 | 3.0 | 0.00 | 0.00 | 0.00 | 21 | 1012.0 |
| 20260506173555 | 75 | 225 | 0.0 | 2.0 | 0.00 | 0.00 | 0.00 | 21 | 1012.0 |
| 20260506172542 | 77 | 180 | 1.0 | 2.0 | 0.00 | 0.00 | 0.00 | 21 | 1011.8 |
| 20260506171530 | 78 | 225 | 2.0 | 4.0 | 0.00 | 0.00 | 0.00 | 20 | 1011.8 |
| 20260506170615 | 80 | 180 | 1.0 | 2.0 | 0.00 | 0.00 | 0.00 | 20 | 1011.7 |
| 20260506165601 | 81 | 225 | 3.0 | 5.0 | 0.00 | 0.00 | 0.00 | 20 | 1011.7 |
| 20260506164549 | 82 | 187 | 4.0 | 6.0 | 0.00 | 0.00 | 0.00 | 13 | 1011.8 |
| 20260506163534 | 83 | 204 | 5.0 | 9.0 | 0.00 | 0.00 | 0.00 | 13 | 1011.6 |
| 20260506162520 | 83 | 223 | 5.0 | 9.0 | 0.00 | 0.00 | 0.00 | 13 | 1011.6 |
| 20260506161609 | 84 | 196 | 5.0 | 7.0 | 0.00 | 0.00 | 0.00 | 14 | 1011.5 |
| 20260506160554 | 84 | 207 | 5.0 | 7.0 | 0.00 | 0.00 | 0.00 | 14 | 1011.6 |
| 20260506155539 | 84 | 196 | 7.0 | 9.0 | 0.00 | 0.00 | 0.00 | 14 | 1011.6 |
| 20260506154527 | 84 | 215 | 9.0 | 13.0 | 0.00 | 0.00 | 0.00 | 14 | 1011.5 |
| 20260506153613 | 84 | 209 | 6.0 | 11.0 | 0.00 | 0.00 | 0.00 | 14 | 1011.6 |
| 20260506152559 | 84 | 207 | 9.0 | 14.0 | 0.00 | 0.00 | 0.00 | 14 | 1011.6 |
| 20260506151547 | 84 | 202 | 10.0 | 14.0 | 0.00 | 0.00 | 0.00 | 14 | 1011.6 |
| 20260506150532 | 85 | 202 | 7.0 | 11.0 | 0.00 | 0.00 | 0.00 | 14 | 1011.8 |
| 20260506145617 | 85 | 180 | 11.0 | 17.0 | 0.00 | 0.00 | 0.00 | 14 | 1011.7 |
| 20260506144605 | 85 | 188 | 8.0 | 14.0 | 0.00 | 0.00 | 0.00 | 14 | 1011.8 |
| 20260506143551 | 86 | 188 | 6.0 | 9.0 | 0.00 | 0.00 | 0.00 | 14 | 1011.8 |
| 20260506142537 | 85 | 203 | 7.0 | 11.0 | 0.00 | 0.00 | 0.00 | 14 | 1011.8 |
| 20260506141524 | 85 | 197 | 9.0 | 13.0 | 0.00 | 0.00 | 0.00 | 14 | 1011.8 |
| 20260506140610 | 86 | 180 | 7.0 | 11.0 | 0.00 | 0.00 | 0.00 | 14 | 1011.8 |
| 20260506135556 | 86 | 211 | 6.0 | 10.0 | 0.00 | 0.00 | 0.00 | 14 | 1011.8 |
| 20260506134545 | 86 | 214 | 9.0 | 14.0 | 0.00 | 0.00 | 0.00 | 14 | 1011.7 |
| 20260506133530 | 85 | 258 | 11.0 | 16.0 | 0.00 | 0.00 | 0.00 | 14 | 1011.8 |
| 20260506132617 | 85 | 189 | 10.0 | 17.0 | 0.00 | 0.00 | 0.00 | 14 | 1011.8 |
| 20260506131604 | 86 | 223 | 5.0 | 10.0 | 0.00 | 0.00 | 0.00 | 14 | 1011.7 |
| 20260506130550 | 85 | 221 | 9.0 | 14.0 | 0.00 | 0.00 | 0.00 | 14 | 1012.0 |
| 20260506125536 | 86 | 219 | 5.0 | 11.0 | 0.00 | 0.00 | 0.00 | 14 | 1011.9 |
| 20260506124525 | 85 | 275 | 5.0 | 8.0 | 0.00 | 0.00 | 0.00 | 14 | 1012.0 |
| 20260506123611 | 86 | 264 | 7.0 | 12.0 | 0.00 | 0.00 | 0.00 | 14 | 1012.1 |
| 20260506122556 | 85 | 267 | 10.0 | 13.0 | 0.00 | 0.00 | 0.00 | 14 | 1012.1 |
| 20260506121545 | 85 | 280 | 5.0 | 8.0 | 0.00 | 0.00 | 0.00 | 14 | 1012.2 |
| 20260506120530 | 85 | 249 | 9.0 | 15.0 | 0.00 | 0.00 | 0.00 | 14 | 1012.3 |
| 20260506115615 | 85 | 259 | 7.0 | 11.0 | 0.00 | 0.00 | 0.00 | 14 | 1012.4 |
| 20260506114604 | 85 | 219 | 7.0 | 12.0 | 0.00 | 0.00 | 0.00 | 14 | 1012.6 |
| 20260506113550 | 84 | 253 | 11.0 | 17.0 | 0.00 | 0.00 | 0.00 | 14 | 1012.6 |
| 20260506112536 | 84 | 236 | 9.0 | 16.0 | 0.00 | 0.00 | 0.00 | 14 | 1012.7 |
| 20260506111523 | 84 | 277 | 11.0 | 16.0 | 0.00 | 0.00 | 0.00 | 14 | 1012.7 |
| 20260506110609 | 84 | 229 | 4.0 | 6.0 | 0.00 | 0.00 | 0.00 | 14 | 1012.7 |
| 20260506105555 | 84 | 204 | 11.0 | 15.0 | 0.00 | 0.00 | 0.00 | 14 | 1012.8 |
| 20260506104543 | 85 | 223 | 10.0 | 16.0 | 0.00 | 0.00 | 0.00 | 14 | 1012.9 |
| 20260506103528 | 83 | 246 | 9.0 | 18.0 | 0.00 | 0.00 | 0.00 | 14 | 1012.9 |
| 20260506102615 | 83 | 210 | 14.0 | 21.0 | 0.00 | 0.00 | 0.00 | 13 | 1012.9 |
| 20260506101602 | 83 | 231 | 9.0 | 20.0 | 0.00 | 0.00 | 0.00 | 13 | 1012.9 |
| 20260506100547 | 83 | 231 | 7.0 | 12.0 | 0.00 | 0.00 | 0.00 | 13 | 1013.0 |
| 20260506095533 | 83 | 289 | 8.0 | 20.0 | 0.00 | 0.00 | 0.00 | 13 | 1012.9 |
| 20260506094521 | 82 | 236 | 5.0 | 8.0 | 0.00 | 0.00 | 0.00 | 13 | 1013.0 |
| 20260506093608 | 82 | 224 | 4.0 | 9.0 | 0.00 | 0.00 | 0.00 | 13 | 1013.2 |
| 20260506092553 | 82 | 270 | 8.0 | 14.0 | 0.00 | 0.00 | 0.00 | 15 | 1013.2 |
| 20260506091541 | 82 | 230 | 6.0 | 10.0 | 0.00 | 0.00 | 0.00 | 17 | 1013.2 |
| 20260506090526 | 82 | 207 | 6.0 | 9.0 | 0.00 | 0.00 | 0.00 | 13 | 1013.1 |
| 20260506085611 | 81 | 258 | 4.0 | 8.0 | 0.00 | 0.00 | 0.00 | 20 | 1013.2 |
| 20260506084559 | 81 | 249 | 7.0 | 10.0 | 0.00 | 0.00 | 0.00 | 20 | 1013.2 |
| 20260506083545 | 81 | 233 | 8.0 | 11.0 | 0.00 | 0.00 | 0.00 | 20 | 1013.1 |
| 20260506082530 | 81 | 315 | 4.0 | 6.0 | 0.00 | 0.00 | 0.00 | 21 | 1013.2 |
| 20260506081519 | 80 | 290 | 5.0 | 9.0 | 0.00 | 0.00 | 0.00 | 21 | 1013.1 |
| 20260506080604 | 79 | 270 | 6.0 | 11.0 | 0.00 | 0.00 | 0.00 | 21 | 1013.3 |
| 20260506073524 | 78 | 233 | 4.0 | 7.0 | 0.00 | 0.00 | 0.00 | 23 | 1013.2 |
| 20260506072609 | 78 | 237 | 4.0 | 6.0 | 0.00 | 0.00 | 0.00 | 23 | 1013.1 |
| 20260506071557 | 78 | 244 | 3.0 | 6.0 | 0.00 | 0.00 | 0.00 | 25 | 1013.0 |
| 20260506070542 | 76 | 239 | 4.0 | 5.0 | 0.00 | 0.00 | 0.00 | 25 | 1013.1 |
| 20260506061536 | 72 | 180 | 3.0 | 4.0 | 0.00 | 0.00 | 0.00 | 32 | 1013.2 |
| 20260506060522 | 72 | 197 | 3.0 | 4.0 | 0.00 | 0.00 | 0.00 | 33 | 1013.1 |
| 20260506050603 | 68 | 216 | 2.0 | 5.0 | 0.00 | 0.00 | 0.00 | 38 | 1013.0 |
| 20260506044538 | 66 | 205 | 2.0 | 3.0 | 0.00 | 0.00 | 0.00 | 40 | 1012.9 |
| 20260506043522 | 66 | 225 | 2.0 | 6.0 | 0.00 | 0.00 | 0.00 | 41 | 1013.1 |
| 20260506042607 | 65 | 225 | 3.0 | 4.0 | 0.00 | 0.00 | 0.00 | 40 | 1013.0 |
| 20260506041525 | 65 | 204 | 2.0 | 6.0 | 0.00 | 0.00 | 0.00 | 41 | 1012.8 |
| 20260506040611 | 63 | 270 | 0.0 | 2.0 | 0.00 | 0.00 | 0.00 | 45 | 1012.9 |
| 20260506035554 | 62 | 180 | 1.0 | 2.0 | 0.00 | 0.00 | 0.00 | 44 | 1012.8 |
| 20260506034542 | 64 | 180 | 1.0 | 2.0 | 0.00 | 0.00 | 0.00 | 42 | 1012.9 |
| 20260506033530 | 62 | 180 | 1.0 | 2.0 | 0.00 | 0.00 | 0.00 | 46 | 1012.7 |
| 20260506032618 | 60 | 0.0 | 1.0 | 0.00 | 0.00 | 0.00 | 48 | 1012.7 | |
| 20260506031604 | 58 | 0.0 | 0.0 | 0.00 | 0.00 | 0.00 | 50 | 1012.5 | |
| 20260506030549 | 56 | 0.0 | 1.0 | 0.00 | 0.00 | 0.00 | 52 | 1012.4 | |
| 20260506025534 | 53 | 0.0 | 1.0 | 0.00 | 0.00 | 0.00 | 58 | 1012.4 | |
| 20260506024522 | 52 | 0.0 | 0.0 | 0.00 | 0.00 | 0.00 | 57 | 1012.3 | |
| 20260506023607 | 52 | 0.0 | 1.0 | 0.00 | 0.00 | 0.00 | 56 | 1012.2 | |
| 20260506022554 | 52 | 0.0 | 1.0 | 0.00 | 0.00 | 0.00 | 54 | 1012.1 | |
| 20260506021541 | 53 | 0.0 | 1.0 | 0.00 | 0.00 | 0.00 | 54 | 1012.3 | |
| 20260506020527 | 53 | 0.0 | 0.0 | 0.00 | 0.00 | 0.00 | 54 | 1012.1 | |
| 20260506015612 | 53 | 0.0 | 0.0 | 0.00 | 0.00 | 0.00 | 53 | 1012.1 | |
| 20260506014601 | 53 | 0.0 | 0.0 | 0.00 | 0.00 | 0.00 | 53 | 1012.2 | |
| 20260506013549 | 53 | 180 | 0.0 | 2.0 | 0.00 | 0.00 | 0.00 | 53 | 1012.0 |
| 20260506012534 | 53 | 180 | 0.0 | 2.0 | 0.00 | 0.00 | 0.00 | 53 | 1012.1 |
| 20260506011523 | 53 | 0.0 | 0.0 | 0.00 | 0.00 | 0.00 | 52 | 1012.1 | |
| 20260506010607 | 53 | 0.0 | 1.0 | 0.00 | 0.00 | 0.00 | 52 | 1012.0 | |
| 20260506005553 | 54 | 0.0 | 1.0 | 0.00 | 0.00 | 0.00 | 52 | 1011.9 | |
| 20260506004542 | 54 | 0.0 | 1.0 | 0.00 | 0.00 | 0.00 | 52 | 1011.9 | |
| 20260506003526 | 53 | 0.0 | 1.0 | 0.00 | 0.00 | 0.00 | 53 | 1011.9 | |
| 20260506002611 | 53 | 180 | 1.0 | 2.0 | 0.00 | 0.00 | 0.00 | 54 | 1011.9 |
| 20260506001559 | 52 | 0.0 | 0.0 | 0.00 | 0.00 | 0.00 | 54 | 1011.9 | |
| 20260506000545 | 52 | 0.0 | 1.0 | 0.00 | 0.00 | 0.00 | 55 | 1011.8 | |
| 20260505235530 | 52 | 180 | 0.0 | 2.0 | 0.00 | 0.00 | 0.00 | 55 | 1011.8 |
| 20260505234518 | 52 | 0.0 | 0.0 | 0.00 | 0.00 | 0.00 | 54 | 1011.8 |